Time,TemperatureF,DewpointF,PressureIn,WindDirection,WindDirectionDegrees,WindSpeedMPH,WindSpeedGustMPH,Humidity,HourlyPrecipIn,Conditions,Clouds,dailyrainin,SoftwareType,DateUTC
2013-01-08 00:04:00,29.0,25.0,30.24,SE,144,6.0,11.0,83,0.00,,,0.06,,2013-01-08 05:04:00,
2013-01-08 00:12:00,29.0,25.0,30.24,SE,144,6.0,11.0,83,0.00,,,0.06,,2013-01-08 05:12:00,
2013-01-08 00:22:00,29.0,25.0,30.24,SSE,161,7.0,13.0,83,0.00,,,0.06,,2013-01-08 05:22:00,
2013-01-08 00:33:00,29.0,25.0,30.24,SSE,161,7.0,13.0,83,0.00,,,0.06,,2013-01-08 05:33:00,
2013-01-08 00:43:00,29.0,25.0,30.24,SSE,161,7.0,13.0,83,0.00,,,0.06,,2013-01-08 05:43:00,
2013-01-08 00:53:00,29.0,25.0,30.24,SE,140,7.0,14.0,83,0.00,,,0.06,,2013-01-08 05:53:00,
2013-01-08 01:03:00,28.0,24.0,30.24,SE,137,5.0,12.0,84,0.00,,,0.06,,2013-01-08 06:03:00,
2013-01-08 01:12:00,28.0,24.0,30.24,SE,137,5.0,12.0,84,0.00,,,0.06,,2013-01-08 06:12:00,
2013-01-08 01:22:00,28.0,24.0,30.24,SE,136,5.0,12.0,84,0.00,,,0.06,,2013-01-08 06:22:00,
2013-01-08 01:33:00,28.0,24.0,30.24,SSE,157,7.0,12.0,84,0.00,,,0.06,,2013-01-08 06:33:00,
2013-01-08 01:42:00,28.0,24.0,30.24,SSE,157,7.0,12.0,84,0.00,,,0.06,,2013-01-08 06:42:00,
2013-01-08 01:52:00,28.0,24.0,30.24,SE,146,6.0,11.0,84,0.00,,,0.06,,2013-01-08 06:52:00,
2013-01-08 02:02:00,28.0,24.0,30.24,SSE,148,5.0,11.0,84,0.00,,,0.06,,2013-01-08 07:02:00,
2013-01-08 02:12:00,28.0,24.0,30.24,SSE,148,5.0,11.0,84,0.00,,,0.06,,2013-01-08 07:12:00,
2013-01-08 02:22:00,28.0,24.0,30.25,SE,146,5.0,11.0,84,0.00,,,0.06,,2013-01-08 07:22:00,
2013-01-08 02:32:00,28.0,24.0,30.25,SE,142,5.0,11.0,84,0.00,,,0.06,,2013-01-08 07:32:00,
2013-01-08 02:42:00,28.0,24.0,30.25,SE,142,5.0,11.0,84,0.00,,,0.06,,2013-01-08 07:42:00,
2013-01-08 02:52:00,28.0,24.0,30.25,SSE,149,7.0,12.0,84,0.00,,,0.06,,2013-01-08 07:52:00,
2013-01-08 03:02:00,28.0,24.0,30.25,South,173,6.0,9.0,84,0.00,,,0.06,,2013-01-08 08:02:00,
2013-01-08 03:12:00,28.0,24.0,30.25,South,173,6.0,9.0,84,0.00,,,0.06,,2013-01-08 08:12:00,
2013-01-08 03:22:00,27.0,23.0,30.25,SE,144,5.0,10.0,84,0.00,,,0.06,,2013-01-08 08:22:00,
2013-01-08 03:32:00,27.0,23.0,30.25,SE,145,5.0,11.0,84,0.00,,,0.06,,2013-01-08 08:32:00,
2013-01-08 03:42:00,27.0,23.0,30.25,SE,145,5.0,11.0,84,0.00,,,0.06,,2013-01-08 08:42:00,
2013-01-08 03:52:00,27.0,23.0,30.24,SSE,157,5.0,9.0,85,0.00,,,0.06,,2013-01-08 08:52:00,
2013-01-08 04:02:00,27.0,23.0,30.24,SE,138,6.0,11.0,84,0.00,,,0.06,,2013-01-08 09:02:00,
2013-01-08 04:12:00,27.0,23.0,30.24,SE,138,6.0,11.0,84,0.00,,,0.06,,2013-01-08 09:12:00,
2013-01-08 04:22:00,27.0,23.0,30.25,SSE,161,4.0,10.0,84,0.00,,,0.06,,2013-01-08 09:22:00,
2013-01-08 04:33:00,27.0,23.0,30.25,SSE,150,3.0,9.0,84,0.00,,,0.06,,2013-01-08 09:33:00,
2013-01-08 04:42:00,27.0,23.0,30.25,SSE,150,3.0,9.0,84,0.00,,,0.06,,2013-01-08 09:42:00,
2013-01-08 04:52:00,27.0,23.0,30.25,SE,139,3.0,7.0,84,0.00,,,0.06,,2013-01-08 09:52:00,
2013-01-08 05:02:00,27.0,23.0,30.26,SSE,148,3.0,7.0,85,0.00,,,0.06,,2013-01-08 10:02:00,
2013-01-08 05:12:00,27.0,23.0,30.26,SSE,148,3.0,7.0,85,0.00,,,0.06,,2013-01-08 10:12:00,
2013-01-08 05:22:00,27.0,23.0,30.26,SE,140,4.0,8.0,85,0.00,,,0.06,,2013-01-08 10:22:00,
2013-01-08 05:33:00,26.0,22.0,30.26,SSE,161,4.0,8.0,86,0.00,,,0.06,,2013-01-08 10:33:00,
2013-01-08 05:42:00,26.0,22.0,30.26,SSE,161,4.0,8.0,86,0.00,,,0.06,,2013-01-08 10:42:00,
2013-01-08 05:52:00,26.0,22.0,30.26,SE,143,4.0,8.0,86,0.00,,,0.06,,2013-01-08 10:52:00,
2013-01-08 06:02:00,26.0,22.0,30.27,SE,139,2.0,7.0,86,0.00,,,0.06,,2013-01-08 11:02:00,
2013-01-08 06:12:00,26.0,22.0,30.27,SE,139,2.0,7.0,86,0.00,,,0.06,,2013-01-08 11:12:00,
2013-01-08 06:23:00,26.0,23.0,30.27,SE,134,3.0,6.0,87,0.00,,,0.06,,2013-01-08 11:23:00,
2013-01-08 06:33:00,26.0,23.0,30.27,ESE,119,3.0,7.0,87,0.00,,,0.06,,2013-01-08 11:33:00,
2013-01-08 06:42:00,26.0,23.0,30.27,ESE,119,3.0,7.0,87,0.00,,,0.06,,2013-01-08 11:42:00,
2013-01-08 06:53:00,26.0,23.0,30.27,SSE,165,3.0,6.0,87,0.00,,,0.06,,2013-01-08 11:53:00,
2013-01-08 07:03:00,25.0,22.0,30.27,SE,132,0.0,5.0,87,0.00,,,0.06,,2013-01-08 12:03:00,
2013-01-08 07:12:00,25.0,22.0,30.27,SE,132,0.0,5.0,87,0.00,,,0.06,,2013-01-08 12:12:00,
2013-01-08 07:22:00,25.0,22.0,30.28,SSE,150,3.0,7.0,88,0.00,,,0.06,,2013-01-08 12:22:00,
2013-01-08 07:33:00,26.0,23.0,30.28,SE,143,5.0,8.0,87,0.00,,,0.06,,2013-01-08 12:33:00,
2013-01-08 07:43:00,26.0,23.0,30.28,SE,143,5.0,8.0,87,0.00,,,0.06,,2013-01-08 12:43:00,
2013-01-08 07:53:00,25.0,22.0,30.29,SSE,153,5.0,9.0,87,0.00,,,0.06,,2013-01-08 12:53:00,
2013-01-08 08:03:00,26.0,23.0,30.29,SE,142,3.0,8.0,87,0.00,,,0.06,,2013-01-08 13:03:00,
2013-01-08 08:12:00,26.0,23.0,30.29,SE,142,3.0,8.0,87,0.00,,,0.06,,2013-01-08 13:12:00,
2013-01-08 08:22:00,26.0,23.0,30.29,SSE,165,3.0,8.0,87,0.00,,,0.06,,2013-01-08 13:22:00,
2013-01-08 08:33:00,26.0,23.0,30.30,SSW,198,4.0,8.0,87,0.00,,,0.06,,2013-01-08 13:33:00,
2013-01-08 08:43:00,26.0,23.0,30.30,SSW,198,4.0,8.0,87,0.00,,,0.06,,2013-01-08 13:43:00,
2013-01-08 08:52:00,26.0,22.0,30.30,SE,134,3.0,7.0,86,0.00,,,0.06,,2013-01-08 13:52:00,
2013-01-08 09:03:00,26.0,23.0,30.30,SE,144,4.0,7.0,87,0.00,,,0.06,,2013-01-08 14:03:00,
2013-01-08 09:13:00,26.0,23.0,30.30,SE,144,4.0,7.0,87,0.00,,,0.06,,2013-01-08 14:13:00,
2013-01-08 09:23:00,27.0,23.0,30.30,SSE,153,4.0,9.0,86,0.00,,,0.06,,2013-01-08 14:23:00,
2013-01-08 09:33:00,27.0,23.0,30.31,SSE,148,6.0,9.0,85,0.00,,,0.06,,2013-01-08 14:33:00,
2013-01-08 09:43:00,27.0,23.0,30.31,SSE,148,6.0,9.0,85,0.00,,,0.06,,2013-01-08 14:43:00,
2013-01-08 09:53:00,28.0,24.0,30.32,South,169,3.0,8.0,84,0.00,,,0.06,,2013-01-08 14:53:00,
2013-01-08 10:03:00,29.0,25.0,30.32,South,171,5.0,10.0,83,0.00,,,0.06,,2013-01-08 15:03:00,
2013-01-08 10:12:00,29.0,25.0,30.32,South,171,5.0,10.0,83,0.00,,,0.06,,2013-01-08 15:12:00,
2013-01-08 10:23:00,30.0,25.0,30.32,SSE,151,1.0,9.0,81,0.00,,,0.06,,2013-01-08 15:23:00,
2013-01-08 10:33:00,31.0,25.0,30.32,SSE,149,2.0,8.0,78,0.00,,,0.06,,2013-01-08 15:33:00,
2013-01-08 10:43:00,31.0,25.0,30.32,SSE,149,2.0,8.0,78,0.00,,,0.06,,2013-01-08 15:43:00,
2013-01-08 10:53:00,33.0,26.0,30.32,SSE,150,4.0,7.0,75,0.00,,,0.06,,2013-01-08 15:53:00,
2013-01-08 11:03:00,34.0,26.0,30.32,SE,138,3.0,8.0,73,0.00,,,0.06,,2013-01-08 16:03:00,
2013-01-08 11:13:00,34.0,26.0,30.32,SE,138,3.0,8.0,73,0.00,,,0.06,,2013-01-08 16:13:00,
2013-01-08 11:23:00,35.0,26.0,30.32,SSE,160,1.0,7.0,70,0.00,,,0.06,,2013-01-08 16:23:00,
2013-01-08 11:34:00,36.0,26.0,30.31,SSE,151,3.0,7.0,68,0.00,,,0.06,,2013-01-08 16:34:00,
2013-01-08 11:43:00,36.0,26.0,30.31,SSE,151,3.0,7.0,68,0.00,,,0.06,,2013-01-08 16:43:00,
2013-01-08 11:52:00,37.0,27.0,30.31,SE,144,1.0,7.0,67,0.01,,,0.07,,2013-01-08 16:52:00,
2013-01-08 12:03:00,37.0,26.0,30.30,SSE,152,2.0,9.0,65,0.01,,,0.07,,2013-01-08 17:03:00,
2013-01-08 12:13:00,37.0,26.0,30.30,SSE,152,2.0,9.0,65,0.01,,,0.07,,2013-01-08 17:13:00,
2013-01-08 12:23:00,37.0,26.0,30.30,South,178,3.0,9.0,64,0.01,,,0.07,,2013-01-08 17:23:00,
2013-01-08 12:34:00,38.0,27.0,30.30,SSW,202,3.0,7.0,63,0.01,,,0.05,,2013-01-08 17:34:00,
2013-01-08 12:43:00,38.0,27.0,30.30,SSW,202,3.0,7.0,63,0.01,,,0.05,,2013-01-08 17:43:00,
2013-01-08 12:53:00,38.0,26.0,30.29,SSE,161,4.0,10.0,62,0.01,,,0.06,,2013-01-08 17:53:00,
2013-01-08 13:04:00,38.0,26.0,30.30,SSE,152,3.0,8.0,61,0.01,,,0.06,,2013-01-08 18:04:00,
2013-01-08 13:13:00,38.0,26.0,30.30,SSE,152,3.0,8.0,61,0.01,,,0.06,,2013-01-08 18:13:00,
2013-01-08 13:23:00,39.0,26.0,30.30,South,175,3.0,6.0,60,0.02,,,0.06,,2013-01-08 18:23:00,
2013-01-08 13:33:00,39.0,26.0,30.29,SSW,211,4.0,11.0,59,0.02,,,0.06,,2013-01-08 18:33:00,
2013-01-08 13:43:00,39.0,26.0,30.29,SSW,211,4.0,11.0,59,0.02,,,0.06,,2013-01-08 18:43:00,
2013-01-08 13:53:00,39.0,25.0,30.29,SSW,201,0.0,7.0,58,0.01,,,0.06,,2013-01-08 18:53:00,
2013-01-08 14:03:00,40.0,26.0,30.29,SSE,160,4.0,8.0,56,0.01,,,0.06,,2013-01-08 19:03:00,
2013-01-08 14:11:00,40.0,25.0,30.29,SSE,166,0.0,3.0,54,0.00,,,0.05,,2013-01-08 19:11:00,
2013-01-08 14:12:00,40.0,26.0,30.29,SSE,160,4.0,8.0,56,0.01,,,0.06,,2013-01-08 19:12:00,
2013-01-08 14:23:00,40.0,26.0,30.29,SW,217,1.0,6.0,56,0.00,,,0.05,,2013-01-08 19:23:00,
2013-01-08 14:33:00,40.0,25.0,30.29,SSE,166,0.0,3.0,54,0.00,,,0.05,,2013-01-08 19:33:00,
2013-01-08 14:43:00,40.0,25.0,30.29,SSE,166,0.0,3.0,54,0.00,,,0.05,,2013-01-08 19:43:00,
2013-01-08 14:53:00,40.0,25.0,30.29,SSE,166,0.0,3.0,54,0.00,,,0.05,,2013-01-08 19:53:00,
2013-01-08 15:03:00,40.0,25.0,30.29,SSE,166,0.0,3.0,54,0.00,,,0.05,,2013-01-08 20:03:00,
2013-01-08 15:23:00,41.0,25.0,30.30,SSE,155,1.0,5.0,53,0.01,,,0.05,,2013-01-08 20:23:00,
2013-01-08 15:33:00,41.0,25.0,30.30,SW,226,0.0,7.0,53,0.00,,,0.05,,2013-01-08 20:33:00,
2013-01-08 15:43:00,41.0,25.0,30.30,SW,226,0.0,7.0,53,0.00,,,0.05,,2013-01-08 20:43:00,
2013-01-08 15:53:00,41.0,25.0,30.30,SSE,148,3.0,10.0,52,0.00,,,0.05,,2013-01-08 20:53:00,
2013-01-08 16:03:00,41.0,25.0,30.30,SSE,148,3.0,10.0,52,0.00,,,0.05,,2013-01-08 21:03:00,
2013-01-08 16:13:00,41.0,25.0,30.30,SSE,148,3.0,10.0,52,0.00,,,0.05,,2013-01-08 21:13:00,
2013-01-08 16:23:00,42.0,24.0,30.30,SSE,157,3.0,7.0,49,0.01,,,0.05,,2013-01-08 21:23:00,
2013-01-08 16:33:00,41.0,24.0,30.30,SE,130,2.0,7.0,50,0.01,,,0.05,,2013-01-08 21:33:00,
2013-01-08 16:43:00,41.0,24.0,30.30,SE,130,2.0,7.0,50,0.01,,,0.05,,2013-01-08 21:43:00,
2013-01-08 16:53:00,41.0,23.0,30.30,SSE,149,4.0,8.0,49,0.00,,,0.05,,2013-01-08 21:53:00,
2013-01-08 17:04:00,41.0,24.0,30.30,SSE,166,2.0,4.0,50,0.00,,,0.05,,2013-01-08 22:04:00,
2013-01-08 17:12:00,41.0,24.0,30.30,SSE,166,2.0,4.0,50,0.00,,,0.05,,2013-01-08 22:12:00,
2013-01-08 17:23:00,41.0,24.0,30.31,SSE,155,2.0,7.0,51,0.00,,,0.05,,2013-01-08 22:23:00,
2013-01-08 17:33:00,40.0,24.0,30.30,SSE,151,2.0,6.0,52,0.00,,,0.05,,2013-01-08 22:33:00,
2013-01-08 17:43:00,40.0,24.0,30.30,SSE,151,2.0,6.0,52,0.00,,,0.05,,2013-01-08 22:43:00,
2013-01-08 17:52:00,40.0,24.0,30.30,SSE,160,5.0,7.0,53,0.00,,,0.05,,2013-01-08 22:52:00,
2013-01-08 18:03:00,39.0,25.0,30.30,SSE,155,4.0,10.0,56,0.00,,,0.05,,2013-01-08 23:03:00,
2013-01-08 18:13:00,39.0,25.0,30.30,SSE,155,4.0,10.0,56,0.00,,,0.05,,2013-01-08 23:13:00,
2013-01-08 18:23:00,39.0,26.0,30.30,SSE,155,5.0,8.0,59,0.00,,,0.05,,2013-01-08 23:23:00,
2013-01-08 18:33:00,39.0,27.0,30.30,South,173,3.0,7.0,61,0.00,,,0.05,,2013-01-08 23:33:00,
2013-01-08 18:43:00,39.0,27.0,30.30,South,173,3.0,7.0,61,0.00,,,0.05,,2013-01-08 23:43:00,
2013-01-08 18:52:00,38.0,27.0,30.30,SSE,147,5.0,12.0,63,0.00,,,0.05,,2013-01-08 23:52:00,
2013-01-08 19:03:00,38.0,27.0,30.30,SSE,165,4.0,8.0,65,0.00,,,0.05,,2013-01-09 00:03:00,
2013-01-08 19:13:00,38.0,27.0,30.30,SSE,165,4.0,8.0,65,0.00,,,0.05,,2013-01-09 00:13:00,
2013-01-08 19:22:00,37.0,27.0,30.31,SSE,157,5.0,10.0,66,0.00,,,0.05,,2013-01-09 00:22:00,
2013-01-08 19:33:00,37.0,27.0,30.31,SSE,159,5.0,9.0,66,0.00,,,0.05,,2013-01-09 00:33:00,
2013-01-08 19:43:00,37.0,27.0,30.31,SSE,159,5.0,9.0,66,0.00,,,0.05,,2013-01-09 00:43:00,
2013-01-08 19:52:00,37.0,27.0,30.31,SSE,150,3.0,7.0,68,0.00,,,0.05,,2013-01-09 00:52:00,
2013-01-08 20:02:00,36.0,27.0,30.31,SSE,154,3.0,6.0,69,0.00,,,0.05,,2013-01-09 01:02:00,
2013-01-08 20:12:00,36.0,27.0,30.31,SSE,154,3.0,6.0,69,0.00,,,0.05,,2013-01-09 01:12:00,
2013-01-08 20:22:00,36.0,28.0,30.30,SSE,150,3.0,7.0,71,0.00,,,0.05,,2013-01-09 01:22:00,
2013-01-08 20:33:00,36.0,28.0,30.32,SSE,155,5.0,8.0,72,0.00,,,0.05,,2013-01-09 01:33:00,
2013-01-08 20:42:00,36.0,28.0,30.32,SSE,155,5.0,8.0,72,0.00,,,0.05,,2013-01-09 01:42:00,
2013-01-08 20:52:00,35.0,28.0,30.32,South,174,4.0,8.0,74,0.00,,,0.05,,2013-01-09 01:52:00,
2013-01-08 21:02:00,35.0,28.0,30.32,SSE,166,3.0,6.0,74,0.00,,,0.05,,2013-01-09 02:02:00,
2013-01-08 21:12:00,35.0,28.0,30.32,SSE,166,3.0,6.0,74,0.00,,,0.05,,2013-01-09 02:12:00,
2013-01-08 21:22:00,35.0,28.0,30.31,SSE,149,2.0,6.0,75,0.00,,,0.05,,2013-01-09 02:22:00,
2013-01-08 21:33:00,34.0,27.0,30.31,SSE,148,3.0,6.0,76,0.00,,,0.05,,2013-01-09 02:33:00,
2013-01-08 21:43:00,34.0,27.0,30.31,SSE,148,3.0,6.0,76,0.00,,,0.05,,2013-01-09 02:43:00,
2013-01-08 21:52:00,34.0,28.0,30.30,SSE,163,3.0,8.0,77,0.00,,,0.05,,2013-01-09 02:52:00,
2013-01-08 22:03:00,34.0,28.0,30.29,SE,139,4.0,6.0,78,0.00,,,0.05,,2013-01-09 03:03:00,
2013-01-08 22:12:00,34.0,28.0,30.29,SE,139,4.0,6.0,78,0.00,,,0.05,,2013-01-09 03:12:00,
2013-01-08 22:22:00,34.0,28.0,30.29,SSE,149,4.0,9.0,78,0.00,,,0.05,,2013-01-09 03:22:00,
2013-01-08 22:33:00,34.0,28.0,30.29,SSE,149,4.0,9.0,78,0.00,,,0.05,,2013-01-09 03:33:00,
2013-01-08 22:43:00,34.0,28.0,30.29,SSE,149,4.0,9.0,78,0.00,,,0.05,,2013-01-09 03:43:00,
2013-01-08 22:52:00,34.0,28.0,30.29,SSE,149,4.0,9.0,78,0.00,,,0.05,,2013-01-09 03:52:00,
2013-01-08 23:02:00,35.0,29.0,30.28,SSE,147,4.0,7.0,78,0.00,,,0.05,,2013-01-09 04:02:00,
2013-01-08 23:12:00,35.0,29.0,30.28,SSE,147,4.0,7.0,78,0.00,,,0.05,,2013-01-09 04:12:00,
2013-01-08 23:22:00,35.0,29.0,30.28,SSE,155,4.0,7.0,78,0.00,,,0.05,,2013-01-09 04:22:00,
2013-01-08 23:33:00,35.0,29.0,30.28,SSE,155,4.0,7.0,78,0.00,,,0.05,,2013-01-09 04:33:00,
2013-01-08 23:42:00,35.0,29.0,30.28,SSE,155,4.0,7.0,78,0.00,,,0.05,,2013-01-09 04:42:00,
2013-01-08 23:52:00,35.0,29.0,30.27,South,171,3.0,6.0,78,0.00,,,0.05,,2013-01-09 04:52:00,